Time,TemperatureF,DewpointF,PressureIn,WindDirection,WindDirectionDegrees,WindSpeedMPH,WindSpeedGustMPH,Humidity,HourlyPrecipIn,Conditions,Clouds,dailyrainin,SolarRadiationWatts/m^2,SoftwareType,DateUTC
2013-07-09 00:00:00,66.0,59.3,25.97,North,360,2.0,3.0,79,0.00,,,0.00,0,Wunderground v.1.15,2013-07-09 06:00:00,
2013-07-09 00:10:00,66.2,59.1,25.97,East,81,3.0,4.0,78,0.00,,,0.00,0,Wunderground v.1.15,2013-07-09 06:10:00,
2013-07-09 00:15:00,66.3,59.2,25.97,East,85,3.0,4.0,78,0.00,,,0.00,0,Wunderground v.1.15,2013-07-09 06:15:00,
2013-07-09 00:20:00,66.3,59.6,25.97,SE,128,3.0,3.0,79,0.00,,,0.00,0,Wunderground v.1.15,2013-07-09 06:20:00,
2013-07-09 00:25:00,66.5,59.4,25.97,ESE,103,2.0,3.0,78,0.00,,,0.00,0,Wunderground v.1.15,2013-07-09 06:25:00,
2013-07-09 00:30:00,66.5,59.8,25.97,ENE,61,1.0,1.0,79,0.00,,,0.00,0,Wunderground v.1.15,2013-07-09 06:30:00,
2013-07-09 00:40:00,66.5,60.1,25.97,North,349,3.0,3.0,80,0.00,,,0.00,0,Wunderground v.1.15,2013-07-09 06:40:00,
2013-07-09 00:45:00,66.5,60.1,25.96,NE,55,4.0,4.0,80,0.00,,,0.00,0,Wunderground v.1.15,2013-07-09 06:45:00,
2013-07-09 00:50:00,66.5,60.1,25.97,WNW,282,4.0,4.0,80,0.00,,,0.00,0,Wunderground v.1.15,2013-07-09 06:50:00,
2013-07-09 00:55:00,66.5,60.1,25.97,North,5,3.0,4.0,80,0.00,,,0.00,0,Wunderground v.1.15,2013-07-09 06:55:00,
2013-07-09 01:00:00,66.5,60.1,25.97,NW,319,3.0,9.0,80,0.00,,,0.00,0,Wunderground v.1.15,2013-07-09 07:00:00,
2013-07-09 01:10:00,66.5,59.8,25.96,East,82,5.0,5.0,79,0.00,,,0.00,0,Wunderground v.1.15,2013-07-09 07:10:00,
2013-07-09 01:15:00,66.7,59.3,25.97,ESE,103,4.0,5.0,77,0.00,,,0.00,0,Wunderground v.1.15,2013-07-09 07:15:00,
2013-07-09 01:20:00,66.7,59.3,25.97,ENE,77,4.0,4.0,77,0.00,,,0.00,0,Wunderground v.1.15,2013-07-09 07:20:00,
2013-07-09 01:25:00,66.7,59.3,25.97,ENE,76,2.0,4.0,77,0.00,,,0.00,0,Wunderground v.1.15,2013-07-09 07:25:00,
2013-07-09 01:30:00,66.7,59.6,25.96,NW,308,1.0,3.0,78,0.00,,,0.00,0,Wunderground v.1.15,2013-07-09 07:30:00,
2013-07-09 01:40:00,66.7,60.0,25.96,NNE,26,1.0,1.0,79,0.00,,,0.00,0,Wunderground v.1.15,2013-07-09 07:40:00,
2013-07-09 01:45:00,66.5,60.1,25.95,WSW,243,1.0,1.0,80,0.00,,,0.00,0,Wunderground v.1.15,2013-07-09 07:45:00,
2013-07-09 01:55:00,66.2,60.2,25.95,West,274,1.0,1.0,81,0.00,,,0.00,0,Wunderground v.1.15,2013-07-09 07:55:00,
2013-07-09 02:00:00,65.9,59.9,25.95,SW,214,0.0,0.0,81,0.00,,,0.00,0,Wunderground v.1.15,2013-07-09 08:00:00,
2013-07-09 02:10:00,65.5,59.9,25.95,SSW,213,0.0,0.0,82,0.00,,,0.00,0,Wunderground v.1.15,2013-07-09 08:10:00,
2013-07-09 02:15:00,65.4,59.8,25.95,SSW,213,0.0,1.0,82,0.00,,,0.00,0,Wunderground v.1.15,2013-07-09 08:15:00,
2013-07-09 02:20:00,65.2,59.6,25.95,NNW,344,0.0,2.0,82,0.00,,,0.00,0,Wunderground v.1.15,2013-07-09 08:20:00,
2013-07-09 02:25:00,65.2,59.9,25.95,NNW,347,1.0,2.0,83,0.00,,,0.00,0,Wunderground v.1.15,2013-07-09 08:25:00,
2013-07-09 02:30:00,64.9,59.6,25.95,NNW,347,0.0,0.0,83,0.00,,,0.00,0,Wunderground v.1.15,2013-07-09 08:30:00,
2013-07-09 02:40:00,64.7,59.8,25.95,NNW,347,0.0,0.0,84,0.00,,,0.00,0,Wunderground v.1.15,2013-07-09 08:40:00,
2013-07-09 02:45:00,64.7,59.8,25.95,NNW,347,0.0,0.0,84,0.00,,,0.00,0,Wunderground v.1.15,2013-07-09 08:45:00,
2013-07-09 02:50:00,64.6,60.0,25.95,NNW,347,0.0,0.0,85,0.00,,,0.00,0,Wunderground v.1.15,2013-07-09 08:50:00,
2013-07-09 02:55:00,64.4,59.8,25.95,NNW,347,0.0,0.0,85,0.00,,,0.00,0,Wunderground v.1.15,2013-07-09 08:55:00,
2013-07-09 03:00:00,64.2,59.6,25.95,NNW,347,0.0,0.0,85,0.00,,,0.00,0,Wunderground v.1.15,2013-07-09 09:00:00,
2013-07-09 03:10:00,63.9,59.6,25.95,NNW,347,0.0,0.0,86,0.00,,,0.00,0,Wunderground v.1.15,2013-07-09 09:10:00,
2013-07-09 03:15:00,63.8,59.5,25.95,NNW,347,0.0,0.0,86,0.00,,,0.00,0,Wunderground v.1.15,2013-07-09 09:15:00,
2013-07-09 03:25:00,63.6,59.3,25.95,NNW,347,0.0,0.0,86,0.00,,,0.00,0,Wunderground v.1.15,2013-07-09 09:25:00,
2013-07-09 03:30:00,63.4,59.5,25.96,NNW,347,0.0,0.0,87,0.00,,,0.00,0,Wunderground v.1.15,2013-07-09 09:30:00,
2013-07-09 03:40:00,63.3,59.4,25.96,NNW,347,0.0,2.0,87,0.00,,,0.00,0,Wunderground v.1.15,2013-07-09 09:40:00,
2013-07-09 03:45:00,63.1,59.2,25.96,NNW,347,0.0,2.0,87,0.00,,,0.00,0,Wunderground v.1.15,2013-07-09 09:45:00,
2013-07-09 03:50:00,63.1,59.2,25.96,NNW,347,0.0,0.0,87,0.00,,,0.00,0,Wunderground v.1.15,2013-07-09 09:50:00,
2013-07-09 04:00:00,63.1,59.2,25.96,NNW,347,0.0,0.0,87,0.00,,,0.00,0,Wunderground v.1.15,2013-07-09 10:00:00,
2013-07-09 04:05:00,63.1,59.2,25.96,NNW,347,0.0,0.0,87,0.00,,,0.00,0,Wunderground v.1.15,2013-07-09 10:05:00,
2013-07-09 04:10:00,63.3,59.4,25.96,NNW,347,0.0,0.0,87,0.00,,,0.00,0,Wunderground v.1.15,2013-07-09 10:10:00,
2013-07-09 04:15:00,63.3,59.4,25.96,NNW,347,0.0,0.0,87,0.00,,,0.00,0,Wunderground v.1.15,2013-07-09 10:15:00,
2013-07-09 04:25:00,63.1,59.2,25.96,NNW,347,0.0,0.0,87,0.00,,,0.00,0,Wunderground v.1.15,2013-07-09 10:25:00,
2013-07-09 04:30:00,63.1,59.2,25.96,ESE,123,0.0,4.0,87,0.00,,,0.00,0,Wunderground v.1.15,2013-07-09 10:30:00,
2013-07-09 04:40:00,64.2,59.9,25.97,ENE,78,2.0,2.0,86,0.00,,,0.00,0,Wunderground v.1.15,2013-07-09 10:40:00,
2013-07-09 04:45:00,64.2,59.6,25.97,ENE,78,1.0,2.0,85,0.00,,,0.00,0,Wunderground v.1.15,2013-07-09 10:45:00,
2013-07-09 04:50:00,64.2,59.6,25.97,ENE,78,0.0,0.0,85,0.00,,,0.00,0,Wunderground v.1.15,2013-07-09 10:50:00,
2013-07-09 04:55:00,64.1,59.5,25.97,ENE,78,0.0,0.0,85,0.00,,,0.00,0,Wunderground v.1.15,2013-07-09 10:55:00,
2013-07-09 05:05:00,64.4,59.5,25.98,NW,321,1.0,1.0,84,0.00,,,0.00,0,Wunderground v.1.15,2013-07-09 11:05:00,
2013-07-09 05:10:00,64.4,59.5,25.97,NW,321,0.0,0.0,84,0.00,,,0.00,0,Wunderground v.1.15,2013-07-09 11:10:00,
2013-07-09 05:15:00,64.4,59.5,25.97,NW,321,0.0,1.0,84,0.00,,,0.00,0,Wunderground v.1.15,2013-07-09 11:15:00,
2013-07-09 05:25:00,63.9,59.3,25.97,NW,323,0.0,0.0,85,0.00,,,0.00,0,Wunderground v.1.15,2013-07-09 11:25:00,
2013-07-09 05:30:00,63.8,59.2,25.97,NW,323,0.0,0.0,85,0.00,,,0.00,11,Wunderground v.1.15,2013-07-09 11:30:00,
2013-07-09 05:35:00,63.9,59.6,25.97,SSE,153,1.0,4.0,86,0.00,,,0.00,14,Wunderground v.1.15,2013-07-09 11:35:00,
2013-07-09 05:40:00,64.1,59.8,25.96,SSE,148,2.0,4.0,86,0.00,,,0.00,21,Wunderground v.1.15,2013-07-09 11:40:00,
2013-07-09 05:45:00,64.4,60.1,25.96,SE,126,3.0,4.0,86,0.00,,,0.00,26,Wunderground v.1.15,2013-07-09 11:45:00,
2013-07-09 05:50:00,64.7,60.1,25.96,SSE,156,2.0,2.0,85,0.00,,,0.00,37,Wunderground v.1.15,2013-07-09 11:50:00,
2013-07-09 05:55:00,64.9,59.9,25.96,SSE,157,2.0,2.0,84,0.00,,,0.00,86,Wunderground v.1.15,2013-07-09 11:55:00,
2013-07-09 06:05:00,66.0,60.0,25.97,SSE,148,4.0,7.0,81,0.00,,,0.00,162,Wunderground v.1.15,2013-07-09 12:05:00,
2013-07-09 06:10:00,66.7,60.3,25.98,ENE,65,3.0,3.0,80,0.00,,,0.00,139,Wunderground v.1.15,2013-07-09 12:10:00,
2013-07-09 06:15:00,67.2,60.5,25.97,SE,146,2.0,4.0,79,0.00,,,0.00,121,Wunderground v.1.15,2013-07-09 12:15:00,
2013-07-09 06:20:00,67.5,60.4,25.97,SSE,148,2.0,2.0,78,0.00,,,0.00,144,Wunderground v.1.15,2013-07-09 12:20:00,
2013-07-09 06:25:00,68.0,60.5,25.97,SSE,152,2.0,2.0,77,0.00,,,0.00,109,Wunderground v.1.15,2013-07-09 12:25:00,
2013-07-09 06:35:00,68.2,60.7,25.97,SSE,152,1.0,1.0,77,0.00,,,0.00,132,Wunderground v.1.15,2013-07-09 12:35:00,
2013-07-09 06:40:00,68.5,61.0,25.97,SSE,152,1.0,1.0,77,0.00,,,0.00,287,Wunderground v.1.15,2013-07-09 12:40:00,
2013-07-09 06:45:00,69.2,60.9,25.97,SE,142,0.0,4.0,75,0.00,,,0.00,311,Wunderground v.1.15,2013-07-09 12:45:00,
2013-07-09 06:50:00,70.0,60.9,25.97,SE,130,1.0,2.0,73,0.00,,,0.00,292,Wunderground v.1.15,2013-07-09 12:50:00,
2013-07-09 06:55:00,70.2,60.7,25.97,ENE,75,2.0,2.0,72,0.00,,,0.00,285,Wunderground v.1.15,2013-07-09 12:55:00,
2013-07-09 07:00:00,70.2,60.7,25.98,NE,50,1.0,1.0,72,0.00,,,0.00,315,Wunderground v.1.15,2013-07-09 13:00:00,
2013-07-09 07:10:00,70.5,61.0,25.98,ESE,116,1.0,1.0,72,0.00,,,0.00,316,Wunderground v.1.15,2013-07-09 13:10:00,
2013-07-09 07:15:00,70.7,61.2,25.98,NE,53,2.0,3.0,72,0.00,,,0.00,352,Wunderground v.1.15,2013-07-09 13:15:00,
2013-07-09 07:20:00,71.0,61.1,25.98,NE,55,2.0,2.0,71,0.00,,,0.00,387,Wunderground v.1.15,2013-07-09 13:20:00,
2013-07-09 07:25:00,71.4,61.1,25.98,East,100,3.0,5.0,70,0.00,,,0.00,403,Wunderground v.1.15,2013-07-09 13:25:00,
2013-07-09 07:30:00,71.5,61.2,25.99,North,350,4.0,4.0,70,0.00,,,0.00,420,Wunderground v.1.15,2013-07-09 13:30:00,
2013-07-09 07:40:00,72.2,61.5,25.99,NE,42,3.0,4.0,69,0.00,,,0.00,455,Wunderground v.1.15,2013-07-09 13:40:00,
2013-07-09 07:45:00,72.2,61.5,25.99,SW,215,3.0,4.0,69,0.00,,,0.00,473,Wunderground v.1.15,2013-07-09 13:45:00,
2013-07-09 07:50:00,72.4,61.2,25.99,NW,317,4.0,4.0,68,0.00,,,0.00,487,Wunderground v.1.15,2013-07-09 13:50:00,
2013-07-09 07:55:00,72.2,61.9,25.99,East,90,4.0,4.0,70,0.00,,,0.00,506,Wunderground v.1.15,2013-07-09 13:55:00,
2013-07-09 08:00:00,72.4,61.2,25.99,NW,322,3.0,8.0,68,0.00,,,0.00,508,Wunderground v.1.15,2013-07-09 14:00:00,
2013-07-09 08:05:00,72.0,61.3,25.99,North,360,4.0,8.0,69,0.00,,,0.00,520,Wunderground v.1.15,2013-07-09 14:05:00,
2013-07-09 08:15:00,72.4,61.7,25.99,NNE,32,4.0,4.0,69,0.00,,,0.00,420,Wunderground v.1.15,2013-07-09 14:15:00,
2013-07-09 08:20:00,72.4,62.1,25.99,NNW,331,3.0,5.0,70,0.00,,,0.00,506,Wunderground v.1.15,2013-07-09 14:20:00,
2013-07-09 08:25:00,73.2,61.6,25.99,NNE,15,3.0,5.0,67,0.00,,,0.00,552,Wunderground v.1.15,2013-07-09 14:25:00,
2013-07-09 08:30:00,73.6,62.0,25.98,East,94,3.0,3.0,67,0.00,,,0.00,596,Wunderground v.1.15,2013-07-09 14:30:00,
2013-07-09 08:40:00,73.9,61.8,25.98,North,5,3.0,3.0,66,0.00,,,0.00,622,Wunderground v.1.15,2013-07-09 14:40:00,
2013-07-09 08:45:00,74.6,61.2,25.98,East,98,4.0,6.0,63,0.00,,,0.00,631,Wunderground v.1.15,2013-07-09 14:45:00,
2013-07-09 08:50:00,75.2,61.7,25.98,NE,50,4.0,4.0,63,0.00,,,0.00,640,Wunderground v.1.15,2013-07-09 14:50:00,
2013-07-09 08:55:00,75.5,62.0,25.98,North,11,3.0,4.0,63,0.00,,,0.00,714,Wunderground v.1.15,2013-07-09 14:55:00,
2013-07-09 09:00:00,75.7,62.2,25.99,NNW,345,4.0,4.0,63,0.00,,,0.00,728,Wunderground v.1.15,2013-07-09 15:00:00,
2013-07-09 09:05:00,75.5,62.0,25.99,NW,322,4.0,6.0,63,0.00,,,0.00,729,Wunderground v.1.15,2013-07-09 15:05:00,
2013-07-09 09:15:00,75.5,62.5,25.98,West,264,5.0,5.0,64,0.00,,,0.00,737,Wunderground v.1.15,2013-07-09 15:15:00,
2013-07-09 09:20:00,74.8,62.7,25.98,ENE,75,6.0,6.0,66,0.00,,,0.00,715,Wunderground v.1.15,2013-07-09 15:20:00,
2013-07-09 09:25:00,74.6,62.5,25.99,North,355,6.0,9.0,66,0.00,,,0.00,761,Wunderground v.1.15,2013-07-09 15:25:00,
2013-07-09 09:30:00,74.6,62.1,25.99,NE,38,5.0,5.0,65,0.00,,,0.00,722,Wunderground v.1.15,2013-07-09 15:30:00,
2013-07-09 09:40:00,73.8,62.2,25.99,SE,146,6.0,6.0,67,0.00,,,0.00,796,Wunderground v.1.15,2013-07-09 15:40:00,
2013-07-09 09:45:00,74.5,62.8,25.99,North,11,6.0,7.0,67,0.00,,,0.00,689,Wunderground v.1.15,2013-07-09 15:45:00,
2013-07-09 09:55:00,74.8,62.7,25.99,North,355,5.0,12.0,66,0.00,,,0.00,810,Wunderground v.1.15,2013-07-09 15:55:00,
2013-07-09 10:00:00,75.2,62.6,25.99,South,191,4.0,4.0,65,0.00,,,0.00,809,Wunderground v.1.15,2013-07-09 16:00:00,
2013-07-09 10:05:00,75.2,62.6,25.99,NNW,346,5.0,8.0,65,0.00,,,0.00,680,Wunderground v.1.15,2013-07-09 16:05:00,
2013-07-09 10:10:00,75.0,61.1,25.99,North,360,5.0,5.0,62,0.00,,,0.00,758,Wunderground v.1.15,2013-07-09 16:10:00,
2013-07-09 10:15:00,74.8,62.7,25.99,ESE,109,5.0,5.0,66,0.00,,,0.00,752,Wunderground v.1.15,2013-07-09 16:15:00,
2013-07-09 10:25:00,73.8,62.6,25.98,East,92,6.0,6.0,68,0.00,,,0.00,640,Wunderground v.1.15,2013-07-09 16:25:00,
2013-07-09 10:30:00,73.8,63.0,25.99,NNW,343,6.0,6.0,69,0.00,,,0.00,559,Wunderground v.1.15,2013-07-09 16:30:00,
2013-07-09 10:40:00,73.6,62.4,25.99,North,349,5.0,8.0,68,0.00,,,0.00,714,Wunderground v.1.15,2013-07-09 16:40:00,
2013-07-09 10:45:00,73.9,62.7,25.99,West,277,5.0,8.0,68,0.00,,,0.00,719,Wunderground v.1.15,2013-07-09 16:45:00,
2013-07-09 10:55:00,74.8,62.7,25.98,NNE,28,5.0,6.0,66,0.00,,,0.00,729,Wunderground v.1.15,2013-07-09 16:55:00,
2013-07-09 11:00:00,75.0,63.7,25.99,ENE,76,5.0,8.0,68,0.00,,,0.00,754,Wunderground v.1.15,2013-07-09 17:00:00,
2013-07-09 11:05:00,74.8,62.7,25.99,NNE,26,6.0,8.0,66,0.00,,,0.00,744,Wunderground v.1.15,2013-07-09 17:05:00,
2013-07-09 11:10:00,74.1,62.9,25.99,SE,142,7.0,8.0,68,0.00,,,0.00,719,Wunderground v.1.15,2013-07-09 17:10:00,
2013-07-09 11:15:00,74.6,62.5,25.99,WNW,290,5.0,10.0,66,0.00,,,0.00,708,Wunderground v.1.15,2013-07-09 17:15:00,
2013-07-09 11:20:00,74.3,62.6,25.98,NNE,26,5.0,12.0,67,0.00,,,0.00,773,Wunderground v.1.15,2013-07-09 17:20:00,
2013-07-09 11:30:00,74.8,62.7,25.98,South,171,5.0,5.0,66,0.00,,,0.00,765,Wunderground v.1.15,2013-07-09 17:30:00,
2013-07-09 11:35:00,74.8,62.7,25.97,NW,322,5.0,6.0,66,0.00,,,0.00,548,Wunderground v.1.15,2013-07-09 17:35:00,
2013-07-09 11:40:00,74.8,62.7,25.98,North,355,5.0,7.0,66,0.00,,,0.00,582,Wunderground v.1.15,2013-07-09 17:40:00,
2013-07-09 11:45:00,75.0,62.9,25.97,NE,46,4.0,7.0,66,0.00,,,0.00,696,Wunderground v.1.15,2013-07-09 17:45:00,
2013-07-09 11:55:00,76.4,62.9,25.97,NNE,28,3.0,9.0,63,0.00,,,0.00,800,Wunderground v.1.15,2013-07-09 17:55:00,
2013-07-09 12:00:00,76.6,62.6,25.97,NE,35,5.0,5.0,62,0.00,,,0.00,780,Wunderground v.1.15,2013-07-09 18:00:00,
2013-07-09 12:05:00,76.4,62.9,25.97,NNW,340,6.0,7.0,63,0.00,,,0.00,782,Wunderground v.1.15,2013-07-09 18:05:00,
2013-07-09 12:15:00,75.5,62.9,25.97,NNE,32,5.0,7.0,65,0.00,,,0.00,476,Wunderground v.1.15,2013-07-09 18:15:00,
2013-07-09 12:20:00,75.9,62.8,25.97,NE,38,4.0,8.0,64,0.00,,,0.00,490,Wunderground v.1.15,2013-07-09 18:20:00,
2013-07-09 12:25:00,76.2,63.1,25.97,NNE,16,4.0,8.0,64,0.00,,,0.00,417,Wunderground v.1.15,2013-07-09 18:25:00,
2013-07-09 12:30:00,76.4,62.9,25.96,West,277,4.0,4.0,63,0.00,,,0.00,773,Wunderground v.1.15,2013-07-09 18:30:00,
2013-07-09 12:40:00,75.9,62.8,25.96,ENE,67,5.0,5.0,64,0.00,,,0.00,473,Wunderground v.1.15,2013-07-09 18:40:00,
2013-07-09 12:45:00,75.3,62.7,25.96,SE,136,5.0,7.0,65,0.00,,,0.00,780,Wunderground v.1.15,2013-07-09 18:45:00,
2013-07-09 12:50:00,75.2,62.6,25.95,WNW,300,6.0,6.0,65,0.00,,,0.00,819,Wunderground v.1.15,2013-07-09 18:50:00,
2013-07-09 12:55:00,75.5,62.9,25.95,ENE,71,5.0,7.0,65,0.00,,,0.00,450,Wunderground v.1.15,2013-07-09 18:55:00,
2013-07-09 13:00:00,75.7,63.1,25.95,NNE,17,5.0,5.0,65,0.00,,,0.00,870,Wunderground v.1.15,2013-07-09 19:00:00,
2013-07-09 13:05:00,76.2,63.1,25.95,ENE,65,5.0,6.0,64,0.00,,,0.00,599,Wunderground v.1.15,2013-07-09 19:05:00,
2013-07-09 13:10:00,76.0,62.9,25.95,North,349,4.0,8.0,64,0.00,,,0.00,680,Wunderground v.1.15,2013-07-09 19:10:00,
2013-07-09 13:20:00,76.4,62.9,25.95,NE,38,4.0,8.0,63,0.00,,,0.00,531,Wunderground v.1.15,2013-07-09 19:20:00,
2013-07-09 13:25:00,75.9,62.8,25.94,NNE,25,5.0,8.0,64,0.00,,,0.00,643,Wunderground v.1.15,2013-07-09 19:25:00,
2013-07-09 13:30:00,75.3,62.7,25.94,North,5,5.0,8.0,65,0.00,,,0.00,608,Wunderground v.1.15,2013-07-09 19:30:00,
2013-07-09 13:35:00,75.3,62.7,25.94,NW,323,5.0,8.0,65,0.00,,,0.00,698,Wunderground v.1.15,2013-07-09 19:35:00,
2013-07-09 13:45:00,75.3,62.3,25.94,ENE,65,5.0,5.0,64,0.00,,,0.00,322,Wunderground v.1.15,2013-07-09 19:45:00,
2013-07-09 13:50:00,74.5,62.4,25.94,NNE,30,5.0,5.0,66,0.00,,,0.00,274,Wunderground v.1.15,2013-07-09 19:50:00,
2013-07-09 13:55:00,74.5,62.8,25.94,NNE,30,5.0,5.0,67,0.00,,,0.00,216,Wunderground v.1.15,2013-07-09 19:55:00,
2013-07-09 14:00:00,74.1,62.4,25.94,NNW,342,5.0,5.0,67,0.00,,,0.00,229,Wunderground v.1.15,2013-07-09 20:00:00,
2013-07-09 14:05:00,74.3,63.1,25.94,NNE,19,5.0,5.0,68,0.00,,,0.00,211,Wunderground v.1.15,2013-07-09 20:05:00,
2013-07-09 14:10:00,74.3,62.6,25.94,NNE,29,4.0,6.0,67,0.00,,,0.00,434,Wunderground v.1.15,2013-07-09 20:10:00,
2013-07-09 14:20:00,74.6,62.5,25.93,ENE,67,4.0,4.0,66,0.00,,,0.00,253,Wunderground v.1.15,2013-07-09 20:20:00,
2013-07-09 14:25:00,74.6,62.5,25.93,SE,138,4.0,5.0,66,0.00,,,0.00,294,Wunderground v.1.15,2013-07-09 20:25:00,
2013-07-09 14:30:00,74.6,62.5,25.94,East,80,4.0,10.0,66,0.00,,,0.00,287,Wunderground v.1.15,2013-07-09 20:30:00,
2013-07-09 14:35:00,74.3,62.6,25.93,WSW,242,5.0,10.0,67,0.00,,,0.00,675,Wunderground v.1.15,2013-07-09 20:35:00,
2013-07-09 14:45:00,74.6,63.3,25.93,ENE,57,5.0,5.0,68,0.00,,,0.00,371,Wunderground v.1.15,2013-07-09 20:45:00,
2013-07-09 14:50:00,74.6,62.9,25.93,East,89,5.0,5.0,67,0.00,,,0.00,524,Wunderground v.1.15,2013-07-09 20:50:00,
2013-07-09 15:00:00,75.2,63.9,25.93,ENE,66,4.0,7.0,68,0.00,,,0.00,635,Wunderground v.1.15,2013-07-09 21:00:00,
2013-07-09 15:10:00,75.0,63.3,25.93,East,82,6.0,6.0,67,0.00,,,0.00,577,Wunderground v.1.15,2013-07-09 21:10:00,
2013-07-09 15:15:00,75.0,63.3,25.93,East,92,5.0,6.0,67,0.00,,,0.00,490,Wunderground v.1.15,2013-07-09 21:15:00,
2013-07-09 15:20:00,75.0,62.9,25.93,NNE,17,5.0,5.0,66,0.00,,,0.00,534,Wunderground v.1.15,2013-07-09 21:20:00,
2013-07-09 15:30:00,74.8,63.1,25.93,NW,311,5.0,5.0,67,0.00,,,0.00,214,Wunderground v.1.15,2013-07-09 21:30:00,
2013-07-09 15:40:00,74.3,63.5,25.93,NNW,335,5.0,7.0,69,0.00,,,0.00,454,Wunderground v.1.15,2013-07-09 21:40:00,
2013-07-09 15:45:00,74.1,63.7,25.93,North,5,5.0,7.0,70,0.00,,,0.00,172,Wunderground v.1.15,2013-07-09 21:45:00,
2013-07-09 15:50:00,73.4,63.4,25.94,NNW,331,6.0,9.0,71,0.00,,,0.00,195,Wunderground v.1.15,2013-07-09 21:50:00,
2013-07-09 15:55:00,72.9,63.3,25.93,ENE,65,6.0,9.0,72,0.00,,,0.00,113,Wunderground v.1.15,2013-07-09 21:55:00,
2013-07-09 16:00:00,72.4,63.3,25.93,West,268,5.0,7.0,73,0.00,,,0.00,306,Wunderground v.1.15,2013-07-09 22:00:00,
2013-07-09 16:10:00,72.4,62.9,25.93,NE,40,6.0,6.0,72,0.00,,,0.00,292,Wunderground v.1.15,2013-07-09 22:10:00,
2013-07-09 16:15:00,72.4,63.3,25.93,NNW,330,7.0,7.0,73,0.00,,,0.00,265,Wunderground v.1.15,2013-07-09 22:15:00,
2013-07-09 16:20:00,72.7,63.1,25.93,WNW,300,5.0,5.0,72,0.00,,,0.00,144,Wunderground v.1.15,2013-07-09 22:20:00,
2013-07-09 16:25:00,72.9,63.3,25.93,SSW,213,5.0,5.0,72,0.00,,,0.00,141,Wunderground v.1.15,2013-07-09 22:25:00,
2013-07-09 16:30:00,72.9,62.9,25.93,NW,324,5.0,5.0,71,0.00,,,0.00,104,Wunderground v.1.15,2013-07-09 22:30:00,
2013-07-09 16:40:00,73.1,63.1,25.93,NNW,330,4.0,5.0,71,0.00,,,0.00,105,Wunderground v.1.15,2013-07-09 22:40:00,
2013-07-09 16:45:00,73.1,63.1,25.93,West,265,4.0,5.0,71,0.00,,,0.00,167,Wunderground v.1.15,2013-07-09 22:45:00,
2013-07-09 16:50:00,72.9,63.3,25.93,NW,318,3.0,3.0,72,0.00,,,0.00,105,Wunderground v.1.15,2013-07-09 22:50:00,
2013-07-09 16:55:00,72.6,63.1,25.94,WNW,294,4.0,7.0,72,0.00,,,0.00,162,Wunderground v.1.15,2013-07-09 22:55:00,
2013-07-09 17:00:00,72.2,63.1,25.94,NW,325,5.0,6.0,73,0.00,,,0.00,67,Wunderground v.1.15,2013-07-09 23:00:00,
2013-07-09 17:05:00,72.0,63.3,25.94,NNE,32,4.0,6.0,74,0.00,,,0.00,53,Wunderground v.1.15,2013-07-09 23:05:00,
2013-07-09 17:10:00,71.9,63.2,25.94,North,11,3.0,4.0,74,0.00,,,0.00,47,Wunderground v.1.15,2013-07-09 23:10:00,
2013-07-09 17:15:00,71.9,63.2,25.94,NNE,20,3.0,4.0,74,0.00,,,0.00,42,Wunderground v.1.15,2013-07-09 23:15:00,
2013-07-09 17:25:00,71.4,63.4,25.94,East,101,4.0,5.0,76,0.00,,,0.00,39,Wunderground v.1.15,2013-07-09 23:25:00,
2013-07-09 17:30:00,71.0,63.1,25.94,NNW,338,3.0,3.0,76,0.00,,,0.00,37,Wunderground v.1.15,2013-07-09 23:30:00,
2013-07-09 17:40:00,71.0,61.9,25.94,SE,136,4.0,4.0,73,0.00,,,0.00,21,Wunderground v.1.15,2013-07-09 23:40:00,
2013-07-09 17:45:00,71.0,62.3,25.94,ESE,120,4.0,5.0,74,0.00,,,0.00,16,Wunderground v.1.15,2013-07-09 23:45:00,
2013-07-09 17:50:00,70.7,62.4,25.94,ESE,121,4.0,4.0,75,0.00,,,0.00,11,Wunderground v.1.15,2013-07-09 23:50:00,
2013-07-09 18:00:00,70.3,62.7,25.95,North,360,3.0,5.0,77,0.00,,,0.00,0,Wunderground v.1.15,2013-07-10 00:00:00,
2013-07-09 18:05:00,70.2,62.6,25.95,NNW,334,4.0,5.0,77,0.00,,,0.00,0,Wunderground v.1.15,2013-07-10 00:05:00,
2013-07-09 18:10:00,70.0,62.5,25.96,NE,42,3.0,4.0,77,0.00,,,0.00,0,Wunderground v.1.15,2013-07-10 00:10:00,
2013-07-09 18:20:00,69.7,62.9,25.96,NNW,327,3.0,7.0,79,0.00,,,0.00,0,Wunderground v.1.15,2013-07-10 00:20:00,
2013-07-09 18:30:00,69.3,62.5,25.96,East,89,3.0,3.0,79,0.00,,,0.00,0,Wunderground v.1.15,2013-07-10 00:30:00,
2013-07-09 18:40:00,69.3,62.5,25.96,ESE,117,2.0,2.0,79,0.00,,,0.00,0,Wunderground v.1.15,2013-07-10 00:40:00,
2013-07-09 18:45:00,69.2,62.4,25.96,NNE,20,2.0,7.0,79,0.00,,,0.00,0,Wunderground v.1.15,2013-07-10 00:45:00,
2013-07-09 18:50:00,69.0,62.2,25.97,SSW,205,3.0,3.0,79,0.00,,,0.00,0,Wunderground v.1.15,2013-07-10 00:50:00,
2013-07-09 19:00:00,68.8,62.4,25.97,NE,34,3.0,3.0,80,0.00,,,0.00,0,Wunderground v.1.15,2013-07-10 01:00:00,
2013-07-09 19:05:00,68.8,62.4,25.98,ENE,75,3.0,3.0,80,0.00,,,0.00,0,Wunderground v.1.15,2013-07-10 01:05:00,
2013-07-09 19:10:00,68.8,62.4,25.98,SE,133,3.0,3.0,80,0.00,,,0.00,0,Wunderground v.1.15,2013-07-10 01:10:00,
2013-07-09 19:15:00,68.8,62.4,25.98,North,355,3.0,3.0,80,0.00,,,0.00,0,Wunderground v.1.15,2013-07-10 01:15:00,
2013-07-09 19:20:00,68.8,62.4,25.98,ESE,106,2.0,2.0,80,0.00,,,0.00,0,Wunderground v.1.15,2013-07-10 01:20:00,
2013-07-09 19:25:00,69.0,62.2,25.98,ESE,108,2.0,2.0,79,0.00,,,0.00,0,Wunderground v.1.15,2013-07-10 01:25:00,
2013-07-09 19:30:00,69.0,62.2,25.98,ENE,68,1.0,1.0,79,0.00,,,0.00,0,Wunderground v.1.15,2013-07-10 01:30:00,
2013-07-09 19:35:00,69.0,62.2,25.99,NE,46,2.0,2.0,79,0.00,,,0.00,0,Wunderground v.1.15,2013-07-10 01:35:00,
2013-07-09 19:45:00,69.0,62.2,25.99,North,5,1.0,2.0,79,0.00,,,0.00,0,Wunderground v.1.15,2013-07-10 01:45:00,
2013-07-09 19:55:00,68.7,62.3,25.99,SE,137,2.0,2.0,80,0.00,,,0.00,0,Wunderground v.1.15,2013-07-10 01:55:00,
2013-07-09 20:00:00,68.7,62.3,25.99,North,5,1.0,1.0,80,0.00,,,0.00,0,Wunderground v.1.15,2013-07-10 02:00:00,
2013-07-09 20:05:00,68.5,62.1,26.00,SE,128,1.0,5.0,80,0.00,,,0.00,0,Wunderground v.1.15,2013-07-10 02:05:00,
2013-07-09 20:10:00,68.5,62.1,26.00,East,94,2.0,4.0,80,0.00,,,0.00,0,Wunderground v.1.15,2013-07-10 02:10:00,
2013-07-09 20:15:00,68.5,61.7,26.00,ESE,120,3.0,4.0,79,0.00,,,0.00,0,Wunderground v.1.15,2013-07-10 02:15:00,
2013-07-09 20:20:00,68.7,61.9,26.00,SSE,154,2.0,2.0,79,0.00,,,0.00,0,Wunderground v.1.15,2013-07-10 02:20:00,
2013-07-09 20:25:00,68.8,62.0,26.00,ENE,71,1.0,2.0,79,0.00,,,0.00,0,Wunderground v.1.15,2013-07-10 02:25:00,
2013-07-09 20:30:00,68.8,61.7,26.00,ENE,70,1.0,2.0,78,0.00,,,0.00,0,Wunderground v.1.15,2013-07-10 02:30:00,
2013-07-09 20:40:00,69.0,62.2,26.00,ENE,70,0.0,2.0,79,0.00,,,0.00,0,Wunderground v.1.15,2013-07-10 02:40:00,
2013-07-09 20:45:00,68.8,62.4,26.00,ENE,70,0.0,2.0,80,0.00,,,0.00,0,Wunderground v.1.15,2013-07-10 02:45:00,
2013-07-09 20:50:00,68.7,62.6,26.00,ENE,70,0.0,0.0,81,0.00,,,0.00,0,Wunderground v.1.15,2013-07-10 02:50:00,
2013-07-09 20:55:00,68.5,62.1,26.00,ENE,70,0.0,0.0,80,0.00,,,0.00,0,Wunderground v.1.15,2013-07-10 02:55:00,
2013-07-09 21:00:00,68.3,62.2,26.00,ENE,70,0.0,0.0,81,0.00,,,0.00,0,Wunderground v.1.15,2013-07-10 03:00:00,
2013-07-09 21:05:00,68.3,62.2,26.00,WNW,287,0.0,0.0,81,0.00,,,0.00,0,Wunderground v.1.15,2013-07-10 03:05:00,
2013-07-09 21:15:00,68.3,62.6,26.00,WNW,287,0.0,0.0,82,0.00,,,0.00,0,Wunderground v.1.15,2013-07-10 03:15:00,
2013-07-09 21:25:00,68.2,62.1,26.00,East,101,1.0,2.0,81,0.00,,,0.00,0,Wunderground v.1.15,2013-07-10 03:25:00,
2013-07-09 21:30:00,68.0,61.9,26.00,East,93,1.0,1.0,81,0.00,,,0.00,0,Wunderground v.1.15,2013-07-10 03:30:00,
2013-07-09 21:35:00,67.8,61.8,26.00,East,82,1.0,4.0,81,0.00,,,0.00,0,Wunderground v.1.15,2013-07-10 03:35:00,
2013-07-09 21:40:00,67.8,62.1,26.00,NE,55,1.0,2.0,82,0.00,,,0.00,0,Wunderground v.1.15,2013-07-10 03:40:00,
2013-07-09 21:45:00,67.8,62.1,26.00,North,355,2.0,2.0,82,0.00,,,0.00,0,Wunderground v.1.15,2013-07-10 03:45:00,
2013-07-09 21:50:00,67.8,62.1,26.00,NNE,14,2.0,3.0,82,0.00,,,0.00,0,Wunderground v.1.15,2013-07-10 03:50:00,
2013-07-09 22:00:00,68.0,61.9,26.00,NNE,26,2.0,2.0,81,0.00,,,0.00,0,Wunderground v.1.15,2013-07-10 04:00:00,
2013-07-09 22:05:00,68.0,61.9,26.00,North,5,1.0,2.0,81,0.00,,,0.00,0,Wunderground v.1.15,2013-07-10 04:05:00,
2013-07-09 22:10:00,68.0,61.9,26.00,North,5,1.0,1.0,81,0.00,,,0.00,0,Wunderground v.1.15,2013-07-10 04:10:00,
2013-07-09 22:15:00,68.2,62.1,26.00,NNE,12,0.0,1.0,81,0.00,,,0.00,0,Wunderground v.1.15,2013-07-10 04:15:00,
2013-07-09 22:20:00,68.0,61.9,26.00,NNE,13,0.0,0.0,81,0.00,,,0.00,0,Wunderground v.1.15,2013-07-10 04:20:00,
2013-07-09 22:25:00,68.0,61.9,26.00,NNE,13,0.0,0.0,81,0.00,,,0.00,0,Wunderground v.1.15,2013-07-10 04:25:00,
2013-07-09 22:30:00,68.0,61.9,25.99,NNE,13,0.0,0.0,81,0.00,,,0.00,0,Wunderground v.1.15,2013-07-10 04:30:00,
2013-07-09 22:40:00,68.0,61.6,25.99,South,179,1.0,1.0,80,0.00,,,0.00,0,Wunderground v.1.15,2013-07-10 04:40:00,
2013-07-09 22:45:00,68.2,61.8,25.99,South,179,0.0,1.0,80,0.00,,,0.00,0,Wunderground v.1.15,2013-07-10 04:45:00,
2013-07-09 22:50:00,68.3,61.2,25.99,SSE,168,0.0,0.0,78,0.00,,,0.00,0,Wunderground v.1.15,2013-07-10 04:50:00,
2013-07-09 22:55:00,68.3,61.5,25.99,SSE,168,0.0,0.0,79,0.00,,,0.00,0,Wunderground v.1.15,2013-07-10 04:55:00,
2013-07-09 23:00:00,68.2,61.1,25.99,ENE,75,1.0,3.0,78,0.00,,,0.00,0,Wunderground v.1.15,2013-07-10 05:00:00,
2013-07-09 23:05:00,68.3,61.2,25.98,ENE,75,1.0,3.0,78,0.00,,,0.00,0,Wunderground v.1.15,2013-07-10 05:05:00,
2013-07-09 23:10:00,68.2,61.1,25.98,NNW,327,0.0,0.0,78,0.00,,,0.00,0,Wunderground v.1.15,2013-07-10 05:10:00,
2013-07-09 23:15:00,68.2,61.4,25.99,NNW,327,0.0,0.0,79,0.00,,,0.00,0,Wunderground v.1.15,2013-07-10 05:15:00,
2013-07-09 23:25:00,68.0,61.2,25.98,NNW,327,0.0,0.0,79,0.00,,,0.00,0,Wunderground v.1.15,2013-07-10 05:25:00,
2013-07-09 23:30:00,67.7,61.3,25.98,NNW,327,0.0,0.0,80,0.00,,,0.00,0,Wunderground v.1.15,2013-07-10 05:30:00,
2013-07-09 23:35:00,67.5,61.1,25.97,NNW,327,0.0,0.0,80,0.00,,,0.00,0,Wunderground v.1.15,2013-07-10 05:35:00,
2013-07-09 23:40:00,67.3,60.9,25.97,NNW,327,0.0,0.0,80,0.00,,,0.00,0,Wunderground v.1.15,2013-07-10 05:40:00,
2013-07-09 23:45:00,67.2,60.8,25.97,SW,229,1.0,1.0,80,0.00,,,0.00,0,Wunderground v.1.15,2013-07-10 05:45:00,
2013-07-09 23:55:00,67.5,61.1,25.97,ESE,115,1.0,1.0,80,0.00,,,0.00,0,Wunderground v.1.15,2013-07-10 05:55:00,